www.pogodaiklimat.ru

Погода и климат >> Архив погоды >> Бангладеш >> Teknaf


ПОГОДА в Teknaf

  • Прогноз погоды в Teknaf
  • Монитор погоды в Teknaf
  • Климат города

АРХИВ ПОГОДЫ в Teknaf

Время (UTC), дата Ветер
(напр.,м/с)
 
Видим.   Явления Облачность Т
(С)
Тd
(С)
f
(%)
Тe
(С)
Тes
(С)
Комфортность P
(гПа)
Po
(гПа)
Тmin
(С)
Tmax
(С)
R
(мм)
R24
(мм)
S
(см)
03 14.05 штиль 0 6000 м 6/4 540 м
[Sc diur, vesp As op]
+23.8 +23.5 98 +32 +32 очень
душно
1010.6 1010.0 +23.0
06 14.05 Ю 4 5000 м слабый ливневой дождь, в посл. час гроза {метель} 10/4 500 м
[Sc As op]
+24.6 +24.0 96 +34 +35 очень
душно
1011.8 1011.2 4
09 14.05 ЮВ 1 5000 м {дождь} 10/6 540 м
[Sc diur, vesp As op]
+26.8 +21.0 71 +34 +35 очень
душно
1008.7 1008.1
15 14.05 штиль 0 5000 м 6/5 540 м
[Sc As op]
+25.4 +21.4 79 +32 +32 очень
душно
1008.2 1007.6
21 14.05 штиль 0 4000 м 4/0
[Ac trans]
+24.8 +19.8 74 +30 +30 душно 1006.3 1005.7
00 15.05 штиль 0 5000 м ясно +23.0 +22.0 94 +31 +32 очень
душно
1007.0 1006.4
03 15.05 штиль 0 6000 м 6/4 540 м
[Sc diur, vesp Ac trans]
+30.2 +23.2 66 +40 +49 очень
душно
1008.9 1008.3 +22.0
06 15.05 С 1 6000 м ясно +31.2 +21.0 55 +39 +65 опасность
солнечного
удара
1008.8 1008.2
09 15.05 З 2 6000 м ясно +31.6 +22.0 57 +40 +52 опасность
солнечного
удара
1007.7 1007.1
12 15.05 штиль 0 6000 м ясно +29.7 +24.0 72 +41 +41 опасность
перегрева
1006.1 1005.5 +33.0
21 15.05 штиль 0 4000 м ясно +26.0 +23.0 84 +35 +35 очень
душно
1005.3 1004.7
00 16.05 штиль 0 5000 м ясно +25.0 +24.0 94 +34 +35 очень
душно
1005.6 1005.0
03 16.05 штиль 0 6000 м 4/3 540 м
[Sc Ac trans]
+29.0 +24.0 74 +40 +51 опасность
солнечного
удара
1006.9 1006.3 +24.5
06 16.05 С 1 6000 м 8/5 540 м
[Sc diur, vesp As op]
+31.1 +24.0 66 +43 +49 опасность
перегрева
1008.4 1007.8
09 16.05 СВ 6 6000 м 8/5 540 м
[Sc diur, vesp As op]
+30.1 +22.0 62 +39 +40 очень
душно
1006.2 1005.6
12 16.05 С 18 6000 м 8/5 540 м
[Sc diur, vesp As op]
+29.1 +22.0 66 +38 +38 очень
душно
1006.6 1006.0 +32.4
18 16.05 штиль 0 4000 м 4/3 540 м
[Sc Ac trans]
+28.0 +22.0 70 +36 +36 очень
душно
1010.2 1009.6
21 16.05 штиль 0 4000 м 8/5 540 м
[Sc diur, vesp As op]
+27.0 +22.0 74 +35 +35 очень
душно
1008.2 1007.6
00 17.05 штиль 0 5000 м 8/5 540 м
[Sc diur, vesp As op]
+26.2 +22.2 79 +34 +34 очень
душно
1005.8 1005.2
03 17.05 ЮЗ 1 6000 м 4/4 540 м
[Sc]
+31.0 +24.0 66 +43 +52 опасность
перегрева
1006.1 1005.5 +25.6
06 17.05 Ю 2 5000 м 10/6 540 м
[Sc diur, vesp As op]
+29.4 +24.0 73 +41 +43 опасность
перегрева
1008.0 1007.4
09 17.05 З 1 6000 м {дождь} 8/4 540 м
[Sc diur, vesp As op]
+29.6 +25.0 76 +42 +46 опасность
перегрева
1006.6 1006.0 5
12 17.05 штиль 0 6000 м {дождь} 5/3 540 м
[Sc diur, vesp As op]
+27.3 +22.0 73 +35 +35 очень
душно
1005.4 1004.8 +32.8 5
21 17.05 штиль 0 4000 м 4/3 540 м
[Sc]
+26.4 +21.0 72 +33 +33 очень
душно
1004.9 1004.3
00 18.05 штиль 0 5000 м 6/4 540 м
[Sc Ac trans]
+25.7 +23.0 85 +34 +35 очень
душно
1005.9 1005.3
03 18.05 штиль 0 6000 м 6/4 540 м
[Sc Ac trans]
+30.0 +24.0 70 +41 +50 опасность
перегрева
1006.7 1006.1 +25.0
06 18.05 Ю 2 6000 м 8/4 540 м
[Sc diur, vesp As op]
+31.4 +24.0 65 +43 +49 опасность
перегрева
1007.8 1007.2
09 18.05 штиль 0 6000 м 3/3 540 м
[Sc diur, vesp]
+31.8 +25.0 67 +45 +56 опасность
перегрева
1004.5 1003.9
12 18.05 штиль 0 6000 м 3/3 540 м
[Sc diur, vesp]
+31.8 +25.0 67 +45 +45 опасность
перегрева
1004.5 1003.9 +33.3
15 18.05 штиль 0 5000 м 3/3 540 м
[Sc diur, vesp]
+29.0 +24.0 74 +40 +40 очень
душно
1005.6 1005.0

 

Местоположение метеостанции Teknaf (Бангладеш): широта 20.87 долгота 92.30 высота над уровнем моря 6 м.

В архиве по умолчанию представлена погода в Teknaf за последнюю неделю. Архивные данные за месяц целиком и за предыдущие месяцы, начиная с января 2011 года, Вы можете получить, выбрав интересующий диапазон дат из раскрывающегося списка и нажав кнопку "Ввод!".


*Определитесь, кто Вы:
робот инопланетянин человек

Внимание! Время в таблицах - всемирное. Для получения местного времени необходимо прибавить поправку, которая в Teknaf равна 6.5 ч.

Смотрите также архив погоды в соседних городах и на ближайших метеорологических станциях:

Погода в Kyauktaw (Мьянма) (34 км)
Погода в Coxs Bazar (Бангладеш) (73 км)
Погода в Sittwe (Мьянма) (102 км)
Погода в Kutubdia (Бангладеш) (115 км)
Погода в Chittagong (Бангладеш) (163 км)
Погода в Mindat (Мьянма) (180 км)
Погода в Rangamati (Бангладеш) (185 км)
Погода в Sitakundu (Бангладеш) (200 км)
Погода в Sandwip (Бангладеш) (200 км)
Погода в Kyaukpyu (Мьянма) (207 км)

Пояснения к столбцам:

Ветер - указаны скорость ветра в м/с - средняя за 10 мин, порывы в срок и между сроками (в фигурных скобках) и направление, откуда дует ветер: С - северный, СВ - северо-восточный, В - восточный, ЮВ - юго-восточный, Ю - южный, ЮЗ - юго-западный, З - западный, СЗ - северо-западный.
Видимость - горизонтальная дальность видимости в метрах или километрах. При видимости от 1 до 10 км при отсутствии осадков обычно наблюдается дымка, при ухудшении видимости до 1 км и менее - туман. В сухую погоду видимость может ухудшаться дымом, пылью или мглою.
Явления - указаны атмосферные явления, наблюдавшиеся в срок или в последний час перед сроком; фигурными скобками обозначены явления, наблюдавшиеся между сроками (за 1-3 часа до срока); квадратными скобками обозначены град или гололедные отложения с указанием их диаметра в мм.
Облачность - указаны через наклонную черту общая и нижняя облачность в баллах и высота нижней границы облаков в метрах; квадратными скобками обозначены формы облаков: Ci - перистые, Cs - перисто-слоистые, Cc - перисто-кучевые, Ac - высококучевые, As - высокослоистые, Sc - слоисто-кучевые, Ns - слоисто-дождевые, Cu - кучевые, Cb - кучево-дождевые. Подробнее классификацию облаков см. в Атласе облаков (PDF).
T - Температура воздуха - температура, измеренная на высоте 2 м над землей.
Td - Температура точки росы - температура, при понижении до которой содержащийся в воздухе водяной пар достигнет насыщения.
f - Относительная влажность воздуха - влажноcть воздуха, измеренная на высоте 2 м над землей.
Te - Эффективная температура - температура, которую ощущает одетый по сезону человек в тени. Характеристика душности погоды. При расчете учитывается влияние влажности воздуха и скорости ветра на теплоощущения человека.
Tes - Эффективная температура на солнце - температура, которую ощущает человек, с поправкой на солнечный нагрев. Характеристика знойности погоды. Зависит от высоты солнца над горизонтом, облачности и скорости ветра. Ночью, в пасмурную погоду, а также при ветре 12 м/с и более поправка равна нулю.
P - Атмосферное давление - приведенное к уровню моря атмосферное давление.
Po - Атмосферное давление - измеренное на уровне метеостанции атмосферное давление.
Tmin - Минимальная температура - минимум температуры воздуха на высоте 2 м над землей.
Tmax - Максимальная температура - максимум температуры воздуха на высоте 2 м над землей.
R - Количество осадков - Количество выпавших осадков за период времени, мм. При наведении курсора мыши на число - период времени, за который выпало указанное количество осадков.
R24 - Количество осадков - Количество выпавших осадков за 24 часа, мм.
S - Снежный покров - Высота снежного покрова, см. При наведении курсора мыши на число - состояние снежного покрова и степень покрытия местности в баллах.